(503780) = 2010 GJ42 = 2016 QS67

Discovered at Mount Lemmon on 2007-11-03 by Mt. Lemmon Survey.

Orbit

Orbit type: Main Belt

Note: WebGL enabled browser required.

epoch2023-09-13.0
epoch JD2460200.5
perihelion date2021-05-09.06735
perihelion JD2459343.56735
argument of perihelion (°)322.54579
ascending node (°)297.93019
inclination (°)13.67286
eccentricity0.1090464
perihelion distance (AU)2.7940731
Tisserand w.r.t. Jupiter3.2
ΔV w.r.t. Earth (km/sec)11.2
semimajor axis (AU)3.1360479
mean anomaly (°)152.08154
mean daily motion (°/day)0.17747200
aphelion distance (AU)3.478
period (years)5.55
P-vector [x]-0.15023480
P-vector [y]-0.84025014
P-vector [z]-0.52096948
Q-vector [x]0.96634028
Q-vector [y]-0.23611659
Q-vector [z]0.10215390
absolute magnitude15.64
phase slope0.15
uncertainty0
referenceMPEC 2023-X152
observations used194
oppositions11
arc length (days)5877
first opposition used2007
last opposition used2023
residual rms (arc-secs)0.73
perturbers coarse indicatorM-v
perturbers precise indicator003Ek
first observation date used2007-11-03.0
last observation date used2023-12-06.0
computer nameMPCLINUX
JD of orbit computation2458010.295357
perihelion JD uncertainty (days)1.7024E-04
argument of perihelion uncertainty (°)3.5756E-05
ascending node uncertainty (°)1.9123E-05
inclination uncertainty (°)5.9320E-06
eccentricity uncertainty 4.9895E-08
perihelion distance uncertainty (AU)1.4419E-07
Minimum Orbit Intersection Distances (in AU)
for orbit epoch: 2460200.5, reference: E2023-XF2
Mercury2.3293
Venus2.07493
Earth1.79076
Mars1.33999
Jupiter1.72802
Saturn5.62206
Uranus15.2432
Neptune26.5463

Observations

198 total observations over interval: 2007 11 03.44772 – 2023 12 06.430541
These data are available for download (format description).

Date (UT) J2000 RA J2000 Dec Magn Location Ref
2007 11 03.44772 08 01 04.83 +25 28 40.4 21.0 V G96 – Mt. Lemmon Survey MPS 727915
2007 11 03.45488 08 01 04.94 +25 28 39.6 21.0 V G96 – Mt. Lemmon Survey MPS 727915
2007 11 03.46206 08 01 05.05 +25 28 38.8 22.1 V G96 – Mt. Lemmon Survey MPS 727915
2007 11 03.46926 08 01 05.23 +25 28 38.3 21.8 V G96 – Mt. Lemmon Survey MPS 727915
2007 12 31.19671 07 42 50.90 +24 40 22.6 20.4 V 691 – Steward Observatory, Kitt Peak-Spacewatch MPS 727915
2007 12 31.21436 07 42 49.94 +24 40 22.2 20.4 V 691 – Steward Observatory, Kitt Peak-Spacewatch MPS 727915
2007 12 31.23201 07 42 49.01 +24 40 21.8 20.3 V 691 – Steward Observatory, Kitt Peak-Spacewatch MPS 727915
2008 01 15.16672 07 28 59.70 +24 28 07.7 20.1 V G96 – Mt. Lemmon Survey MPS 727915
2008 01 15.17225 07 28 59.44 +24 28 06.3 20.4 V G96 – Mt. Lemmon Survey MPS 727915
2008 01 15.17774 07 28 59.19 +24 28 06.3 20.4 V G96 – Mt. Lemmon Survey MPS 727915
2008 01 15.18321 07 28 58.83 +24 28 05.7 20.5 V G96 – Mt. Lemmon Survey MPS 727915
2008 01 30.12686 07 15 43.21 +24 06 12.8 20.5 V 691 – Steward Observatory, Kitt Peak-Spacewatch MPS 727915
2008 01 30.14339 07 15 42.39 +24 06 11.3 20.7 V 691 – Steward Observatory, Kitt Peak-Spacewatch MPS 727915
2008 01 30.15995 07 15 41.57 +24 06 09.3 20.9 V 691 – Steward Observatory, Kitt Peak-Spacewatch MPS 727915
2008 02 13.10927 07 06 11.77 +23 37 36.9 20.9 V 691 – Steward Observatory, Kitt Peak-Spacewatch MPS 727915
2008 02 13.12821 07 06 11.08 +23 37 34.9 20.5 V 691 – Steward Observatory, Kitt Peak-Spacewatch MPS 727915
2008 02 13.14717 07 06 10.46 +23 37 32.1 20.5 V 691 – Steward Observatory, Kitt Peak-Spacewatch MPS 727915
2010 04 04.62581 19 13 06.39 -30 39 27.2   C51 – WISE MPS 340872
2010 04 04.69190 19 13 10.42 -30 39 19.9   C51 – WISE MPS 340872
2010 04 04.75811 19 13 14.47 -30 39 11.7   C51 – WISE MPS 340872
2010 04 04.82433 19 13 18.49 -30 39 04.0   C51 – WISE MPS 340872
2010 04 04.89042 19 13 22.62 -30 38 56.1   C51 – WISE MPS 340872
2010 04 07.53675 19 16 01.16 -30 33 52.9   C51 – WISE MPS 322412
2010 04 07.536752 19 16 01.14 -30 33 52.6   C51 – WISE MPS 322412
2010 04 07.602969 19 16 04.99 -30 33 44.4   C51 – WISE MPS 322412
2010 04 07.669057 19 16 08.84 -30 33 36.2   C51 – WISE MPS 322412
2010 04 07.735272 19 16 12.73 -30 33 28.6   C51 – WISE MPS 322412
2010 04 07.801361 19 16 16.56 -30 33 22.5   C51 – WISE MPS 322412
2010 04 07.86758 19 16 20.26 -30 33 08.1   C51 – WISE MPS 322412
2010 04 08.132185 19 16 35.76 -30 32 42.8   C51 – WISE MPS 322412
2011 10 19.27298 23 54 45.435 +19 36 04.63 20.8 w F51 – Pan-STARRS 1, Haleakala MPS 727915
2011 10 19.28684 23 54 44.904 +19 36 00.07 20.8 w F51 – Pan-STARRS 1, Haleakala MPS 727915
2011 10 19.30075 23 54 44.369 +19 35 55.28 20.8 w F51 – Pan-STARRS 1, Haleakala MPS 727915
2011 10 19.31674 23 54 43.757 +19 35 49.86 20.8 w F51 – Pan-STARRS 1, Haleakala MPS 727915
2013 12 25.50252 09 48 00.01 +08 42 16.0 21.3 V G96 – Mt. Lemmon Survey MPS 727915
2013 12 25.51102 09 47 59.94 +08 42 14.6 21.2 V G96 – Mt. Lemmon Survey MPS 727915
2013 12 25.51952 09 47 59.76 +08 42 12.3 21.5 V G96 – Mt. Lemmon Survey MPS 727915
2013 12 25.52801 09 47 59.67 +08 42 11.1 21.9 V G96 – Mt. Lemmon Survey MPS 727915
2014 01 02.36902 09 45 28.60 +08 22 03.9 21.1 V G96 – Mt. Lemmon Survey MPS 727915
2014 01 02.37426 09 45 28.46 +08 22 02.3 20.8 V G96 – Mt. Lemmon Survey MPS 727915
2014 01 02.37950 09 45 28.27 +08 22 01.8 21.6 V G96 – Mt. Lemmon Survey MPS 727915
2014 01 02.38474 09 45 28.16 +08 22 01.7 20.9 V G96 – Mt. Lemmon Survey MPS 727915
2014 01 10.41021 09 41 33.64 +08 07 34.0 19.7 V G96 – Mt. Lemmon Survey MPS 727915
2014 01 10.41597 09 41 33.55 +08 07 33.7 19.9 V G96 – Mt. Lemmon Survey MPS 727915
2014 01 10.42173 09 41 33.31 +08 07 32.6 20.7 V G96 – Mt. Lemmon Survey MPS 727915
2014 01 10.42749 09 41 33.13 +08 07 32.1 20.7 V G96 – Mt. Lemmon Survey MPS 727915
2014 01 25.39638 09 31 13.819 +07 56 41.00 20.2 w F51 – Pan-STARRS 1, Haleakala MPS 727915
2014 01 25.40792 09 31 13.253 +07 56 41.01 20.2 w F51 – Pan-STARRS 1, Haleakala MPS 727915
2014 01 25.41942 09 31 12.688 +07 56 40.85 20.2 w F51 – Pan-STARRS 1, Haleakala MPS 727915
2014 01 25.43093 09 31 12.122 +07 56 40.84 20.2 w F51 – Pan-STARRS 1, Haleakala MPS 727915
2015 06 24.27444 14 02 27.183 -29 52 27.99 20.1 r F51 – Pan-STARRS 1, Haleakala MPS 727915
2015 06 24.28566 14 02 27.267 -29 52 23.93 20.0 r F51 – Pan-STARRS 1, Haleakala MPS 727915
2015 06 24.29661 14 02 27.365 -29 52 19.76 20.0 r F51 – Pan-STARRS 1, Haleakala MPS 727915
2015 06 24.30757 14 02 27.464 -29 52 15.51 20.1 r F51 – Pan-STARRS 1, Haleakala MPS 727915
2016 07 12.33269 22 00 30.09 -05 22 50.2 20.3 V 691 – Steward Observatory, Kitt Peak-Spacewatch MPS 727915
2016 07 12.33962 22 00 29.86 -05 22 49.2 20.4 V 691 – Steward Observatory, Kitt Peak-Spacewatch MPS 727915
2016 07 12.34656 22 00 29.68 -05 22 47.5 20.5 V 691 – Steward Observatory, Kitt Peak-Spacewatch MPS 727915
2016 07 28.49575 21 50 31.368 -04 47 37.91 20.0 r F51 – Pan-STARRS 1, Haleakala MPS 727915
2016 07 28.50702 21 50 30.843 -04 47 37.07 19.8 r F51 – Pan-STARRS 1, Haleakala MPS 727915
2016 07 28.51825 21 50 30.324 -04 47 36.12 19.7 r F51 – Pan-STARRS 1, Haleakala MPS 727915
2016 08 08.51380 21 41 38.369 -04 40 02.00 19.8 w F51 – Pan-STARRS 1, Haleakala MPS 727915
2016 08 08.52651 21 41 37.703 -04 40 01.84 19.9 w F51 – Pan-STARRS 1, Haleakala MPS 727915
2016 08 08.53922 21 41 37.039 -04 40 01.71 19.8 w F51 – Pan-STARRS 1, Haleakala MPS 727915
2016 08 08.55198 21 41 36.368 -04 40 01.63 19.6 w F51 – Pan-STARRS 1, Haleakala MPS 727915
2016 08 09.64012 21 40 41.05 -04 39 56.5 20.0 R D29 – Purple Mountain Observatory, XuYi Station MPS 727915
2016 08 09.65427 21 40 40.33 -04 39 56.2 20.3 R D29 – Purple Mountain Observatory, XuYi Station MPS 727915
2016 08 09.66841 21 40 39.58 -04 39 56.5 20.0 R D29 – Purple Mountain Observatory, XuYi Station MPS 727915
2016 08 29.23361 21 24 21.67 -04 52 31.0 19.5 V G96 – Mt. Lemmon Survey MPS 727915
2016 08 29.24148 21 24 21.30 -04 52 31.8 19.6 V G96 – Mt. Lemmon Survey MPS 727915
2016 08 29.24931 21 24 20.95 -04 52 32.3 19.7 V G96 – Mt. Lemmon Survey MPS 727915
2016 08 29.25708 21 24 20.55 -04 52 33.1 19.6 V G96 – Mt. Lemmon Survey MPS 727915
2016 08 30.34725 21 23 31.287 -04 53 48.08 19.7 w F51 – Pan-STARRS 1, Haleakala MPS 727915
2016 08 30.35964 21 23 30.711 -04 53 48.96 19.9 w F51 – Pan-STARRS 1, Haleakala MPS 727915
2016 08 30.37206 21 23 30.134 -04 53 49.89 20.0 w F51 – Pan-STARRS 1, Haleakala MPS 727915
2016 10 31.07071 21 15 49.89 -05 14 27.5 21.8 V G96 – Mt. Lemmon Survey MPS 739971
2016 10 31.07499 21 15 50.06 -05 14 27.2 20.7 V G96 – Mt. Lemmon Survey MPS 739971
2016 10 31.07924 21 15 50.17 -05 14 27.3 20.9 V G96 – Mt. Lemmon Survey MPS 739971
2016 10 31.08355 21 15 50.29 -05 14 25.9 21.4 V G96 – Mt. Lemmon Survey MPS 739971
2017 09 06.48132 02 43 16.132 +33 01 19.42 21.1 i F51 – Pan-STARRS 1, Haleakala MPS 815048
2017 09 06.49473 02 43 16.071 +33 01 23.05 21.0 i F51 – Pan-STARRS 1, Haleakala MPS 815048
2017 09 06.50847 02 43 16.033 +33 01 26.64 20.8 i F51 – Pan-STARRS 1, Haleakala MPS 815048
2017 09 06.52181 02 43 16.027 +33 01 30.46 20.7 i F51 – Pan-STARRS 1, Haleakala MPS 815048
2017 09 13.52659 02 42 36.337 +33 29 32.91 21.1 i F51 – Pan-STARRS 1, Haleakala MPS 815730
2017 09 13.53786 02 42 36.165 +33 29 35.49 20.9 i F51 – Pan-STARRS 1, Haleakala MPS 815730
2017 09 13.54912 02 42 36.068 +33 29 37.83 21.1 i F51 – Pan-STARRS 1, Haleakala MPS 815730
2017 09 13.56036 02 42 35.894 +33 29 40.61 20.7 i F51 – Pan-STARRS 1, Haleakala MPS 815730
2017 10 29.26947 02 14 09.02 +33 27 26.5 20.4 G G96 – Mt. Lemmon Survey MPS 834254
2017 10 29.27542 02 14 08.71 +33 27 24.9 20.5 G G96 – Mt. Lemmon Survey MPS 834254
2017 10 29.28124 02 14 08.42 +33 27 23.5 20.4 G G96 – Mt. Lemmon Survey MPS 834254
2017 10 29.28695 02 14 08.09 +33 27 22.1 20.4 G G96 – Mt. Lemmon Survey MPS 834254
2017 11 09.45368 02 04 35.360 +32 31 32.11 19.8 i F51 – Pan-STARRS 1, Haleakala MPS 835560
2017 11 09.46592 02 04 34.740 +32 31 27.61 20.1 i F51 – Pan-STARRS 1, Haleakala MPS 835560
2017 11 09.47819 02 04 34.129 +32 31 23.22 20.0 i F51 – Pan-STARRS 1, Haleakala MPS 835560
